Hibbing, MN

10:25 PM CDT on July 22, 2017 (GMT -0500)
Chisholm-hibbing

Weather History for KHIB - October, 2014

Change the Weather History Date:

Thursday, October 30, 2014

  Actual Average Record
Temperature  
Mean Temperature 34 °F -  
Max Temperature 42 °F 46 °F 69 °F (2008)
Min Temperature 28 °F 28 °F 6 °F (1988)
Degree Days  
Heating Degree Days 30    
Moisture  
Dew Point 29 °F    
Average Humidity 76    
Maximum Humidity 89    
Minimum Humidity 56    
Precipitation  
Precipitation 0.01 in - - ()
Sea Level Pressure  
Sea Level Pressure 30.16 in    
Wind  
Wind Speed 9 mph (NNW)    
Max Wind Speed 34 mph    
Max Gust Speed 46 mph    
Visibility 9 miles    
Events Rain , Snow    
Averages and records for this station are not official NWS values.
T = Trace of Precipitation, MM = Missing Value Source: NWS Daily Summary

Daily Weather History Graph

Daily Weather History Graph

Search for Another Location

Airport or City:

Trip Planner

Search our weather history database for the weather conditions in past years. The results will help you decide how hot, cold, wet, or windy it might be!

Date:

Astronomy

Oct. 30, 2014 Rise Set
Actual Time 7:51 AM CDT 5:57 PM CDT
Civil Twilight 7:20 AM CDT 6:29 PM CDT
Nautical Twilight 6:43 AM CDT 7:05 PM CDT
Astronomical Twilight 6:08 AM CDT 7:40 PM CDT
Moon 1:58 PM CDT (10/30) No Moon Set
Length of Visible Light 11h 09m
Length of Day
10h 05m
Waxing Crescent, 45% of the Moon is Illuminated
Oct 30
Waxing Crescent
Oct 30
First Quarter
Nov 6
Full
Nov 14
Last Quarter
Nov 22
New

Hourly Weather History & Observations

Time (CDT) Temp. Windchill Dew Point Humidity Pressure Visibility Wind Dir Wind Speed Gust Speed Precip Events Conditions
12:53 AM 36.0 °F - 32.0 °F 86% 30.08 in 10.0 mi Calm Calm - N/A   Overcast
1:53 AM 36.0 °F - 32.0 °F 86% 30.09 in 10.0 mi Calm Calm - N/A   Overcast
2:53 AM 35.1 °F 32.2 °F 32.0 °F 89% 30.08 in 10.0 mi SSW 3.5 mph - N/A   Overcast
3:07 AM 35.1 °F - 32.0 °F 89% 30.03 in 10.0 mi Calm Calm - N/A   Overcast
3:53 AM 35.1 °F - 32.0 °F 89% 30.08 in 10.0 mi Calm Calm - N/A   Overcast
4:53 AM 35.1 °F - 32.0 °F 89% 30.08 in 10.0 mi Calm Calm - N/A   Overcast
5:53 AM 35.1 °F - 32.0 °F 89% 30.09 in 10.0 mi Calm Calm - N/A   Overcast
6:19 AM 36.0 °F - 32.0 °F 86% 30.04 in 10.0 mi Calm Calm - 0.00 in   Overcast
6:53 AM 36.0 °F 31.1 °F 32.0 °F 86% 30.09 in 10.0 mi NNW 5.8 mph - 0.00 in   Overcast
7:53 AM 36.0 °F 31.1 °F 30.9 °F 82% 30.10 in 10.0 mi North 5.8 mph - N/A   Overcast
8:53 AM 36.0 °F 31.1 °F 30.9 °F 82% 30.12 in 10.0 mi NNW 5.8 mph - N/A   Overcast
9:34 AM 37.0 °F 31.6 °F 30.9 °F 79% 30.07 in 10.0 mi NNW 6.9 mph - N/A   Overcast
9:53 AM 37.0 °F 29.8 °F 30.0 °F 76% 30.13 in 10.0 mi NNW 10.4 mph - N/A   Overcast
10:25 AM 37.9 °F 30.5 °F 30.0 °F 73% 30.09 in 10.0 mi NNW 11.5 mph - N/A   Overcast
10:38 AM 37.9 °F 30.9 °F 30.9 °F 76% 30.09 in 10.0 mi NNW 10.4 mph - N/A   Overcast
10:53 AM 37.9 °F 30.0 °F 30.9 °F 76% 30.14 in 10.0 mi NNW 12.7 mph - N/A   Overcast
11:49 AM 39.2 °F 31.6 °F 32.0 °F 75% 30.10 in 10.0 mi NW 12.7 mph - N/A   Overcast
11:53 AM 39.0 °F 31.4 °F 32.0 °F 76% 30.15 in 10.0 mi NW 12.7 mph - N/A   Overcast
12:06 PM 39.0 °F 31.4 °F 33.1 °F 79% 30.10 in 10.0 mi NW 12.7 mph - N/A   Overcast
12:53 PM 39.9 °F 32.1 °F 32.0 °F 73% 30.16 in 10.0 mi NW 13.8 mph - N/A   Overcast
1:53 PM 39.0 °F 29.9 °F 33.1 °F 79% 30.15 in 9.0 mi NW 17.3 mph - 0.00 in Rain Light Rain
2:11 PM 39.9 °F 31.4 °F 34.0 °F 79% 30.10 in 10.0 mi NW 16.1 mph 20.7 mph 0.01 in   Overcast
2:18 PM 39.0 °F 29.6 °F 33.1 °F 79% 30.10 in 9.0 mi NNW 18.4 mph 27.6 mph 0.01 in Rain Light Rain
2:26 PM 39.0 °F 31.0 °F 33.1 °F 79% 30.10 in 10.0 mi NW 13.8 mph 20.7 mph 0.01 in   Mostly Cloudy
2:37 PM 41.0 °F 33.5 °F 35.1 °F 79% 30.09 in 10.0 mi North 13.8 mph - 0.01 in   Overcast
2:51 PM 39.2 °F 30.2 °F 30.2 °F 70% 30.10 in 10.0 mi NW 17.3 mph 24.2 mph 0.01 in Rain Light Rain
2:53 PM 37.9 °F 27.9 °F 32.0 °F 79% 30.16 in 10.0 mi NW 19.6 mph 24.2 mph 0.01 in Rain Light Rain
3:17 PM 41.0 °F 31.4 °F 30.9 °F 67% 30.11 in 10.0 mi NNW 21.9 mph 29.9 mph 0.00 in   Scattered Clouds
3:53 PM 39.0 °F 30.3 °F 28.9 °F 67% 30.17 in 10.0 mi NW 16.1 mph 27.6 mph 0.00 in   Overcast
4:53 PM 37.0 °F 24.9 °F 28.9 °F 73% 30.19 in 8.0 mi NW 27.6 mph 34.5 mph 0.00 in Snow Light Snow
5:01 PM 37.0 °F 25.9 °F 28.9 °F 73% 30.15 in 9.0 mi NW 23.0 mph 34.5 mph 0.00 in   Overcast
5:13 PM 35.1 °F 21.0 °F 28.9 °F 78% 30.17 in 0.8 mi NNW 34.5 mph 46.0 mph 0.00 in Snow Light Snow
5:24 PM 32.0 °F 19.8 °F 26.1 °F 79% 30.17 in 2.0 mi NNW 20.7 mph 36.8 mph 0.00 in Snow Light Snow
5:31 PM 33.1 °F 21.2 °F 25.0 °F 72% 30.18 in 9.0 mi NNW 20.7 mph - 0.00 in   Overcast
5:53 PM 33.1 °F 20.6 °F 23.0 °F 66% 30.25 in 10.0 mi NNW 23.0 mph 34.5 mph 0.00 in   Overcast
6:53 PM 30.9 °F 16.7 °F 17.1 °F 57% 30.30 in 10.0 mi NNW 27.6 mph 34.5 mph N/A   Partly Cloudy
7:53 PM 28.9 °F 15.4 °F 17.1 °F 61% 30.34 in 10.0 mi NNW 21.9 mph 38.0 mph N/A   Clear
8:53 PM 28.9 °F 16.5 °F 18.0 °F 64% 30.37 in 10.0 mi NNW 18.4 mph 26.5 mph N/A   Mostly Cloudy
9:53 PM 28.9 °F 16.9 °F 17.1 °F 61% 30.40 in 10.0 mi North 17.3 mph 26.5 mph N/A   Mostly Cloudy
10:53 PM 28.9 °F 16.9 °F 16.0 °F 58% 30.43 in 10.0 mi North 17.3 mph 25.3 mph N/A   Overcast
11:53 PM 28.0 °F 16.1 °F 14.0 °F 56% 30.45 in 10.0 mi North 16.1 mph 27.6 mph N/A   Mostly Cloudy